Location: Newark
(43.4306°N, 0.3089°E)
Time: 09:37:56
(UTC+00:00)

S-56A Canister/Altair - Pass Details

Date: 20 August 2019
Orbit: 633 x 2499 km, 38.9° (Epoch: 20 October)

Event Time Altitude Azimuth Distance (km) Brightness Sun altitude
Rises 03:51:07 0° 269° (W) 3,391 - -13.6°
Reaches altitude 10° 03:54:09 10° 250° (WSW) 2,680 - -13.1°
Exits shadow 03:56:24 16° 229° (SW) 2,426 9.4 -12.8°
Maximum altitude 03:58:23 18° 208° (SSW) 2,459 9.6 -12.4°
Drops below altitude 10° 04:03:42 10° 169° (S) 3,479 10.7 -11.6°
Sets 04:08:27 0° 153° (SSE) 4,856 11.6 -10.9°
